THORAD AGENA D DEB, 5000

Orbit data source: Space-Track

THORAD AGENA D DEB, 5000 is space debris in SSO originally from a launch on Wed, 08 Apr 1970 UTC launched from the Air Force Western Test Range (AFWTR). Debris objects in space refer to the collection of defunct objects orbiting the Earth. Examples of debris include non-operational satellites, rocket bodies, and fragments generated from explosions, collisions, or faulty payload assembly.

Loading next visibility...
Identifier
5000, 1970-025HW
Orbit
SSO
Country
Flag of USUS
Related business
Manufacturer
Unknown
Mission
Spacecraft
Bus & Motor
Unknown
Mass
Unknown
Launch date (UTC)
1970-04-08 (56 years ago)
Launch vehicle
Unknown
Launch site
Air Force Western Test Range (AFWTR)
Object type
Payload
Rocket body
Debris
Shape & HBR
Unknown shape, 0.1 m
Radar Cross Section
Small (<0.1 m²)

Expand to show TLE details & history
Last TLE update: 11 hours ago

TLE from 11 hours ago
0 THORAD AGENA D DEB
1  5000U 70025HW  25307.72318042  .00001031  00000-0  32840-2 0  9997
2  5000  99.7940 223.9778 0490502  84.8402 311.3395 12.70420660563039
Epoch: 2025-11-03T17:21Z
TLE epoch observation values (Epoch: 2025-11-03T17:21:22.788Z)
Latitude
31.3261°
Longitude
-85.5874°
Altitude
1,143.657 km
Speed
7.396 km/s
True Right ascension
14h 31m 54s
True Declination
31° 10' 53"
Sunlit
Object was in daylight at epoch
Visualization orbit readout
Latitude
Unknown
Longitude
Unknown
Altitude
Unknown
Speed
Unknown
Apparent Right ascension
Unknown
Apparent Declination
Unknown
Sunlit
N/A
Visualization observer readout
Local Sidereal Time
00:07:42
Azimuth
Unknown
Elevation
Unknown
Doppler factor
Unknown
Orbital elements
Apogee altitude
1,758.053 km
Perigee altitude
997.209 km
Semi-major axis
7,755.768 km
Eccentricity
0.04905
Inclination
99.794°
RAAN
223.9778°
Arg. of periapsis
84.8402°
True anomaly
306.94593°
Mean anomaly
311.3395°
Eccentric anomaly
309.16039°
Mean motion
3.17765 °/min
Orbital period
113.29 mins
BSTAR
0.003284
Loading maneuver chart data...
Computing Atmospheric mass density...

Documentation

Showing up to 5 results
|